Wildwood, NJ

4:21 AM EDT on August 22, 2017 (GMT -0400)
Cape May County

Weather History for KWWD - March, 2014

Change the Weather History Date:

Thursday, March 6, 2014

  Actual Average Record
Temperature  
Mean Temperature 28 °F -  
Max Temperature 32 °F 45 °F 66 °F (2004)
Min Temperature 24 °F 32 °F 10 °F (2015)
Degree Days  
Heating Degree Days 37    
Moisture  
Dew Point 17 °F    
Average Humidity 63    
Maximum Humidity 75    
Minimum Humidity 51    
Precipitation  
Precipitation 0.00 in - - ()
Sea Level Pressure  
Sea Level Pressure 30.47 in    
Wind  
Wind Speed 13 mph (NE)    
Max Wind Speed 23 mph    
Max Gust Speed 28 mph    
Visibility 10 miles    
Events      
Averages and records for this station are not official NWS values.
T = Trace of Precipitation, MM = Missing Value Source: NWS Daily Summary

Daily Weather History Graph

Daily Weather History Graph

Search for Another Location

Airport or City:

Trip Planner

Search our weather history database for the weather conditions in past years. The results will help you decide how hot, cold, wet, or windy it might be!

Date:

Astronomy

Mar. 06, 2014 Rise Set
Actual Time 6:24 AM EST 5:57 PM EST
Civil Twilight 5:58 AM EST 6:24 PM EST
Nautical Twilight 5:27 AM EST 6:55 PM EST
Astronomical Twilight 4:56 AM EST 7:26 PM EST
Moon 9:33 AM EST (3/6) 11:58 PM EST (3/6)
Length of Visible Light 12h 26m
Length of Day
11h 32m
Waxing Crescent, 32% of the Moon is Illuminated
Mar 6
Waxing Crescent
Mar 8
First Quarter
Mar 16
Full
Mar 23
Last Quarter
Mar 30
New

Hourly Weather History & Observations

Time (EST) Temp. Windchill Dew Point Humidity Pressure Visibility Wind Dir Wind Speed Gust Speed Precip Events Conditions
12:15 AM 28.4 °F 19.7 °F 12.2 °F 51% 30.38 in 10.0 mi North 9.2 mph - N/A   Clear
12:35 AM 28.4 °F 19.7 °F 12.2 °F 51% 30.39 in 10.0 mi North 9.2 mph - N/A   Clear
12:55 AM 28.4 °F 18.5 °F 12.2 °F 51% 30.40 in 10.0 mi NNE 11.5 mph 16.1 mph N/A   Clear
1:15 AM 28.4 °F 19.1 °F 12.2 °F 51% 30.41 in 10.0 mi NNE 10.4 mph - N/A   Clear
1:35 AM 28.4 °F 18.0 °F 12.2 °F 51% 30.41 in 10.0 mi NNE 12.7 mph - N/A   Clear
1:55 AM 28.4 °F 18.0 °F 12.2 °F 51% 30.40 in 10.0 mi NNE 12.7 mph 19.6 mph N/A   Clear
2:15 AM 28.4 °F 18.0 °F 12.2 °F 51% 30.40 in 10.0 mi NNE 12.7 mph - N/A   Clear
2:35 AM 28.4 °F 18.0 °F 12.2 °F 51% 30.41 in 10.0 mi NNE 12.7 mph 17.3 mph N/A   Clear
2:55 AM 26.6 °F 15.7 °F 12.2 °F 55% 30.42 in 10.0 mi NNE 12.7 mph 17.3 mph N/A   Clear
3:15 AM 26.6 °F 15.2 °F 12.2 °F 55% 30.42 in 10.0 mi NNE 13.8 mph - N/A   Clear
3:35 AM 26.6 °F 16.2 °F 12.2 °F 55% 30.44 in 10.0 mi NNE 11.5 mph 18.4 mph N/A   Clear
3:55 AM 26.6 °F 15.7 °F 12.2 °F 55% 30.44 in 10.0 mi NNE 12.7 mph - N/A   Clear
4:15 AM 26.6 °F 15.7 °F 12.2 °F 55% 30.44 in 10.0 mi NNE 12.7 mph 17.3 mph N/A   Clear
4:35 AM 26.6 °F 14.7 °F 12.2 °F 55% 30.44 in 10.0 mi NNE 15.0 mph 18.4 mph N/A   Clear
4:55 AM 26.6 °F 14.3 °F 12.2 °F 55% 30.44 in 10.0 mi NNE 16.1 mph 19.6 mph N/A   Clear
5:15 AM 26.6 °F 14.7 °F 12.2 °F 55% 30.44 in 10.0 mi NNE 15.0 mph - N/A   Clear
5:35 AM 26.6 °F 13.4 °F 12.2 °F 55% 30.44 in 10.0 mi NNE 18.4 mph 23.0 mph N/A   Clear
5:55 AM 24.8 °F 14.0 °F 12.2 °F 59% 30.45 in 10.0 mi NNE 11.5 mph 21.9 mph N/A   Clear
6:15 AM 24.8 °F 13.4 °F 14.0 °F 64% 30.46 in 10.0 mi NNE 12.7 mph 23.0 mph N/A   Clear
6:35 AM 24.8 °F 12.4 °F 14.0 °F 64% 30.48 in 10.0 mi NNE 15.0 mph 19.6 mph N/A   Clear
6:55 AM 24.8 °F 11.9 °F 15.8 °F 69% 30.48 in 10.0 mi NNE 16.1 mph 23.0 mph N/A   Clear
7:15 AM 24.8 °F 11.9 °F 15.8 °F 69% 30.49 in 10.0 mi NNE 16.1 mph 20.7 mph N/A   Clear
7:35 AM 24.8 °F 12.9 °F 14.0 °F 64% 30.49 in 10.0 mi NNE 13.8 mph 20.7 mph N/A   Clear
7:55 AM 26.6 °F 16.2 °F 15.8 °F 64% 30.52 in 10.0 mi NNE 11.5 mph 21.9 mph N/A   Clear
8:15 AM 26.6 °F 15.7 °F 15.8 °F 64% 30.54 in 10.0 mi NE 12.7 mph - N/A   Clear
8:35 AM 26.6 °F 14.7 °F 15.8 °F 64% 30.54 in 10.0 mi NE 15.0 mph 24.2 mph N/A   Clear
8:55 AM 28.4 °F 17.0 °F 15.8 °F 59% 30.55 in 10.0 mi NE 15.0 mph 24.2 mph N/A   Mostly Cloudy
9:15 AM 28.4 °F 16.6 °F 15.8 °F 59% 30.55 in 10.0 mi NE 16.1 mph 21.9 mph N/A   Mostly Cloudy
9:35 AM 28.4 °F 15.8 °F 15.8 °F 59% 30.56 in 10.0 mi NE 18.4 mph 25.3 mph N/A   Partly Cloudy
9:55 AM 30.2 °F 18.5 °F 17.6 °F 60% 30.56 in 10.0 mi NE 17.3 mph 24.2 mph N/A   Clear
10:15 AM 30.2 °F 18.1 °F 15.8 °F 55% 30.55 in 10.0 mi NE 18.4 mph 26.5 mph N/A   Clear
10:35 AM 30.2 °F 16.8 °F 17.6 °F 60% 30.55 in 10.0 mi NE 23.0 mph 27.6 mph N/A   Clear
10:55 AM 30.2 °F 18.1 °F 17.6 °F 60% 30.54 in 10.0 mi NE 18.4 mph 26.5 mph N/A   Clear
11:15 AM 30.2 °F 17.1 °F 17.6 °F 60% 30.54 in 10.0 mi NE 21.9 mph 25.3 mph N/A   Clear
11:35 AM 30.2 °F 17.8 °F 17.6 °F 60% 30.55 in 10.0 mi NE 19.6 mph 26.5 mph N/A   Clear
11:55 AM 30.2 °F 18.1 °F 17.6 °F 60% 30.55 in 10.0 mi NE 18.4 mph 26.5 mph N/A   Clear
12:15 PM 30.2 °F 19.3 °F 19.4 °F 64% 30.54 in 10.0 mi NE 15.0 mph 25.3 mph N/A   Clear
12:35 PM 30.2 °F 18.5 °F 17.6 °F 60% 30.53 in 10.0 mi ENE 17.3 mph 23.0 mph N/A   Partly Cloudy
12:55 PM 30.2 °F 19.8 °F 19.4 °F 64% 30.52 in 10.0 mi ENE 13.8 mph 23.0 mph N/A   Partly Cloudy
1:15 PM 30.2 °F 18.9 °F 19.4 °F 64% 30.51 in 10.0 mi NE 16.1 mph 24.2 mph N/A   Partly Cloudy
1:35 PM 30.2 °F 19.8 °F 19.4 °F 64% 30.50 in 10.0 mi NE 13.8 mph 21.9 mph N/A   Partly Cloudy
1:55 PM 32.0 °F 20.8 °F 19.4 °F 60% 30.49 in 10.0 mi NE 17.3 mph - N/A   Partly Cloudy
2:15 PM 32.0 °F 21.6 °F 19.4 °F 60% 30.48 in 10.0 mi NE 15.0 mph 23.0 mph N/A   Mostly Cloudy
2:35 PM 30.2 °F 20.2 °F 19.4 °F 64% 30.49 in 10.0 mi ENE 12.7 mph 24.2 mph N/A   Mostly Cloudy
2:55 PM 30.2 °F 18.5 °F 21.2 °F 69% 30.49 in 10.0 mi ENE 17.3 mph 23.0 mph N/A   Mostly Cloudy
3:15 PM 30.2 °F 18.1 °F 19.4 °F 64% 30.48 in 10.0 mi NE 18.4 mph 25.3 mph N/A   Mostly Cloudy
3:35 PM 30.2 °F 18.1 °F 19.4 °F 64% 30.50 in 10.0 mi NE 18.4 mph 24.2 mph N/A   Scattered Clouds
3:55 PM 30.2 °F 20.2 °F 19.4 °F 64% 30.50 in 10.0 mi NE 12.7 mph 21.9 mph N/A   Scattered Clouds
4:15 PM 30.2 °F 20.8 °F 19.4 °F 64% 30.48 in 10.0 mi ENE 11.5 mph 25.3 mph N/A   Mostly Cloudy
4:35 PM 30.2 °F 18.9 °F 21.2 °F 69% 30.48 in 10.0 mi NE 16.1 mph 21.9 mph N/A   Mostly Cloudy
4:55 PM 28.4 °F 17.0 °F 21.2 °F 74% 30.48 in 10.0 mi NE 15.0 mph 21.9 mph N/A   Scattered Clouds
5:15 PM 28.4 °F 17.5 °F 21.2 °F 74% 30.48 in 10.0 mi NE 13.8 mph 20.7 mph N/A   Scattered Clouds
5:35 PM 28.4 °F 17.5 °F 21.2 °F 74% 30.48 in 10.0 mi NE 13.8 mph 18.4 mph N/A   Clear
5:55 PM 28.4 °F 18.0 °F 21.2 °F 74% 30.48 in 10.0 mi NE 12.7 mph 19.6 mph N/A   Clear
6:15 PM 28.4 °F 17.5 °F 21.2 °F 74% 30.48 in 10.0 mi NE 13.8 mph 17.3 mph N/A   Mostly Cloudy
6:35 PM 28.4 °F 16.6 °F 21.2 °F 74% 30.46 in 10.0 mi NE 16.1 mph 21.9 mph N/A   Mostly Cloudy
6:55 PM 28.4 °F 17.0 °F 21.2 °F 74% 30.47 in 10.0 mi NE 15.0 mph 20.7 mph N/A   Clear
7:15 PM 28.4 °F 17.5 °F 21.2 °F 74% 30.47 in 10.0 mi NE 13.8 mph 20.7 mph N/A   Clear
7:35 PM 28.4 °F 18.0 °F 21.2 °F 74% 30.47 in 10.0 mi NE 12.7 mph - N/A   Clear
7:55 PM 28.4 °F 17.0 °F 21.2 °F 74% 30.46 in 10.0 mi NE 15.0 mph 19.6 mph N/A   Clear
8:15 PM 30.2 °F 22.6 °F 21.2 °F 69% 30.46 in 10.0 mi NE 8.1 mph - N/A   Clear
8:35 PM 30.2 °F 21.9 °F 21.2 °F 69% 30.45 in 10.0 mi ENE 9.2 mph - N/A   Clear
8:55 PM 30.2 °F 19.8 °F 21.2 °F 69% 30.45 in 10.0 mi NE 13.8 mph 21.9 mph N/A   Clear
9:15 PM 30.2 °F 20.2 °F 19.4 °F 64% 30.44 in 10.0 mi ENE 12.7 mph 19.6 mph N/A   Clear
9:35 PM 30.2 °F 19.8 °F 21.2 °F 69% 30.43 in 10.0 mi ENE 13.8 mph 19.6 mph N/A   Partly Cloudy
9:55 PM 32.0 °F 21.2 °F 21.2 °F 64% 30.43 in 10.0 mi ENE 16.1 mph - N/A   Mostly Cloudy
10:15 PM 32.0 °F 21.2 °F 21.2 °F 64% 30.43 in 10.0 mi ENE 16.1 mph 20.7 mph N/A   Mostly Cloudy
10:35 PM 32.0 °F 22.1 °F 21.2 °F 64% 30.42 in 10.0 mi ENE 13.8 mph - N/A   Scattered Clouds
10:55 PM 32.0 °F 22.5 °F 21.2 °F 64% 30.41 in 10.0 mi ENE 12.7 mph 20.7 mph N/A   Clear
11:15 PM 32.0 °F 23.0 °F 21.2 °F 64% 30.40 in 10.0 mi ENE 11.5 mph 20.7 mph N/A   Clear
11:35 PM 32.0 °F 22.5 °F 23.0 °F 69% 30.40 in 10.0 mi ENE 12.7 mph 20.7 mph N/A   Partly Cloudy
11:55 PM 32.0 °F 22.5 °F 24.8 °F 75% 30.38 in 10.0 mi ENE 12.7 mph - N/A   Mostly Cloudy